Home   Weather   Esbjerg   Past weeks

Flag for Denmark Past Weather in Esbjerg, Denmark — Yesterday and Last 2 Weeks

Now
45 °F

Partly sunny.


Feels Like: 36 °F
Forecast: 40 / 46 °F
Wind: 23 mph from Northwest

Location: Esbjerg Airport

Current Time: Apr 23, 2017 at 12:31:58 pm

Latest Report: Apr 23, 2017 at 11:50 am


Visibility: N/A

Pressure: 30.07 "Hg

Humidity: 61%

Dew Point: 32 °F

Location of EsbjergLocation

Past Weather in Esbjerg — Graph

°F

Esbjerg Temperature Yesterday

Maximum temperature yesterday: 48 °F (at 2:20 pm)
Minimum temperature yesterday: 37 °F (at 2:50 am)
Average temperature yesterday: 43 °F

High & Low Weather Summary for the Past Weeks

 TemperatureHumidityPressure
High55 °F (Apr 9, 2:20 pm)100% (Apr 8, 11:20 pm)30.66 "Hg (Apr 8, 11:20 pm)
Low25 °F (Apr 19, 6:50 am)39% (Apr 19, 10:20 am)29.59 "Hg (Apr 15, 6:50 am)
Average43 °F81%30.05 "Hg
* Reported Apr 8 11:20 am — Apr 23 11:20 am, Esbjerg, Weather by CustomWeather, © 2017

Note: Actual official high and low records may vary slightly from our data, if they occured in-between our weather recording intervals... More about our weather records

Advertising

Esbjerg Weather History for the Previous 24 Hours

Scroll right to see more
 ConditionsComfort  
Time TempWeatherWind HumidityBarometerVisibility
11:20 am
Sun, Apr 23
43 °FPartly sunny.24 mph66%30.07 "HgN/A
10:50 am43 °FPartly sunny.21 mph66%30.07 "HgN/A
10:20 am43 °FPartly sunny.24 mph66%30.07 "HgN/A
9:50 am39 °FLight rain. Passing clouds.22 mph75%30.07 "HgN/A
9:20 am43 °FPassing clouds.22 mph71%30.07 "HgN/A
8:50 am41 °FScattered clouds.14 mph76%30.07 "HgN/A
8:20 am41 °FPartly sunny.12 mph81%30.07 "HgN/A
7:50 am37 °FSprinkles. Broken clouds.17 mph87%30.07 "HgN/A
7:20 am37 °FPartly sunny.8 mph87%30.04 "HgN/A
6:50 am37 °FBroken clouds.7 mph87%30.04 "HgN/A
6:20 am39 °FPartly sunny.16 mph81%30.04 "HgN/A
5:50 am37 °FSprinkles. Passing clouds.20 mph87%30.04 "HgN/A
5:20 am37 °FSprinkles. Passing clouds.15 mph87%30.04 "HgN/A
4:50 am39 °FSprinkles. Passing clouds.16 mph87%30.04 "HgN/A
4:20 am39 °FSprinkles. Passing clouds.22 mph87%30.07 "Hg5 mi
3:50 am39 °FSprinkles. Passing clouds.17 mph81%30.04 "HgN/A
3:20 am39 °FPassing clouds.14 mph87%30.04 "HgN/A
2:50 am39 °FPassing clouds.17 mph81%30.04 "HgN/A
2:20 am43 °FPassing clouds.20 mph71%30.04 "HgN/A
1:50 am43 °FPassing clouds.18 mph76%30.04 "HgN/A
1:20 am43 °FPassing clouds.16 mph76%30.04 "HgN/A
12:50 am43 °FPassing clouds.14 mph81%30.07 "HgN/A
12:20 am43 °FPassing clouds.17 mph76%30.04 "HgN/A
11:50 pm
Sat, Apr 22
43 °FPassing clouds.16 mph71%30.04 "HgN/A
11:20 pm43 °FPassing clouds.15 mph76%30.04 "HgN/A
10:50 pm41 °FPassing clouds.16 mph87%30.04 "HgN/A
10:20 pm43 °FPassing clouds.15 mph76%30.04 "HgN/A
9:50 pm43 °FPartly cloudy.17 mph76%30.04 "HgN/A
9:20 pm43 °FPassing clouds.18 mph76%30.04 "HgN/A
8:50 pm43 °FPassing clouds.21 mph76%30.04 "HgN/A
8:20 pm43 °FPartly sunny.17 mph76%30.04 "HgN/A
7:50 pm45 °FPassing clouds.21 mph71%30.04 "HgN/A
7:20 pm45 °FPartly sunny.22 mph71%30.04 "HgN/A
6:50 pm45 °FPartly sunny.23 mph66%30.04 "HgN/A
6:20 pm46 °FPartly sunny.22 mph66%30.04 "HgN/A
5:50 pm46 °FPartly sunny.24 mph66%30.04 "HgN/A
5:20 pm46 °FPartly sunny.24 mph66%30.04 "HgN/A
4:50 pm46 °FPartly sunny.25 mph71%30.04 "HgN/A
4:20 pm46 °FPartly sunny.25 mph66%30.04 "HgN/A
3:50 pm48 °FScattered clouds.24 mph66%30.04 "HgN/A
3:20 pm48 °FPartly sunny.28 mph66%30.01 "HgN/A
2:50 pm46 °FPartly sunny.25 mph71%30.04 "HgN/A
2:20 pm48 °FPartly sunny.26 mph71%30.04 "HgN/A
1:50 pm46 °FPartly sunny.25 mph76%30.04 "HgN/A
1:20 pm45 °FDrizzle. Partly sunny.26 mph81%30.04 "HgN/A
12:50 pm46 °FPartly sunny.23 mph76%30.04 "HgN/A
12:20 pm45 °FPartly sunny.24 mph76%30.04 "HgN/A
Weather by CustomWeather, © 2017

See weather overviewHow to use our weather pages